Regional Weather Roundup
Issued by NWS

Home | Current Version | Previous Version | Text Only | Print | Product List | Glossary Off
Versions: 1 2 3 4 5 6 7 8 9 10 11 12 13 14 15 16 17 18 19 20 21 22 23 24 25 26 27 28 29 30 31 32 33 34 35 36 37 38 39 40 41 42 43 44 45 46 47 48 49 50

000
ASUS43 KIND 261909
RWRIN

WEATHER ROUNDUP FOR INDIANA
NATIONAL WEATHER SERVICE INDIANAPOLIS IN
300 PM EDT THU MAY 26 2016

NOTE: "FAIR" INDICATES FEW OR NO CLOUDS BELOW 12,000 FEET WITH NO
SIGNIFICANT WEATHER AND/OR OBSTRUCTIONS TO VISIBILITY.

* - STATION DOES NOT REPORT WEATHER SUCH AS PRECIPITATION OR FOG.

+ - STATION NOT QUALITY CONTROLLED BY THE NATIONAL WEATHER SERVICE.
    USE DATA WITH CAUTION...ESPECIALLY DEWPOINT AND RELATIVE
    HUMIDITY OBSERVATIONS.

INZ001>003-010>013-019-020-262000-
NORTHWEST INDIANA

CITY           SKY/WX    TMP DP  RH WIND       PRES   REMARKS
GARY /AIRPORT/ PTSUNNY   81  68  65 S12       29.89
KNOX *+        MOSUNNY   79  54  41 SW12      29.90F
LA PORTE +     MOSUNNY   83  64  52 S13       29.90F
MICHIGAN CITY+ MOSUNNY   82  63  51 SW15      29.88F
MONTICELLO +   CLOUDY    75  65  71 S7        29.93S
RENSSELAER +   CLOUDY    77  64  65 S9        29.92F
VALPARAISO     SUNNY     81  62  52 SW13      29.90F

$$

LMZ046-743>745-262000-
SOUTHERN LAKE MICHIGAN

STATION/POSITION TIME  TEMP    WIND        PRES    WAVE
                       AIR SEA DIR/SP/G            HT
                 (UTC) (F)     (DEG/KT/KT) (MB)    (FT)
BURNS HARBOR     1800   79     190/ 15/ 19 1012.2F
MICHIGAN CITY    1800   76     140/ 10/ 12   N/A
5NW MICH CITY    1900   71 60  250/  8/  8   N/A     1

$$

INZ004-005-014>016-021>024-262000-
NORTH CENTRAL INDIANA

CITY           SKY/WX    TMP DP  RH WIND       PRES   REMARKS
ELKHART        PTSUNNY   81  68  65 S5        29.91
GOSHEN         CLOUDY    81  58  45 SW10      29.91F
LOGANSPORT +   CLOUDY    75  64  69 SE9       29.94S
PERU/GRISSOM   CLOUDY    76  66  71 S13       29.93F
ROCHESTER +    CLOUDY    77  66  69 S8        29.93F
SOUTH BEND     MOSUNNY   81  61  50 S14G21    29.89F
WARSAW +       MOSUNNY   79  59  50 S9        29.93S

$$

INZ006>009-017-018-025>027-262000-
NORTHEAST INDIANA

CITY           SKY/WX    TMP DP  RH WIND       PRES   REMARKS
ANGOLA *+      MOSUNNY   81  75  83 SW14      29.93F
AUBURN +       CLOUDY    81  63  54 SW6       29.94F
FORT WAYNE     CLOUDY    79  65  62 SW13      29.95F
HUNTINGTON +   CLOUDY   N/A N/A N/A S7        29.93F

$$

INZ028-029-035-036-043>045-051>053-262000-
WEST CENTRAL INDIANA

CITY           SKY/WX    TMP DP  RH WIND       PRES   REMARKS
CRAWFORDSVL +  CLOUDY    73  67  81 SE3       29.96R
GREENCASTLE +  CLOUDY    73  70  88 S9        29.96S
LAFAYETTE      CLOUDY    75  65  70 S8        29.93F
TERRE HAUTE    CLOUDY    75  66  73 S9        29.96R

$$

INZ030>032-037>040-046>048-054>057-064-065-262000-
CENTRAL INDIANA

CITY           SKY/WX    TMP DP  RH WIND       PRES   REMARKS
ANDERSON       MOSUNNY   73  68  83 E12       29.96F
CP ATTERBURY + CLOUDY    68  64  88 CALM      29.99F
COLUMBUS       PTSUNNY   66  66 100 E14       29.95F
FISHERS *+     CLOUDY    73  70  88 S7        29.95F
FRANKFORT +      N/A     75  56  51 CALM      29.96F
INDIANAPOLIS   CLOUDY    71  65  81 VRB3      29.95F
-EAGLE CREEK   CLOUDY    73  65  75 SE7       29.94F
KOKOMO *+      CLOUDY    75  64  69 S10       29.94F
MARION +       CLOUDY    75  65  70 S12       29.95F
SHELBYVILLE    CLOUDY    72  65  78 SE7       29.96F
ZIONSVILLE +   CLOUDY    72  67  83 SE9       29.94F

$$

INZ033-034-041-042-049-050-058-059-262000-
EAST CENTRAL INDIANA

CITY           SKY/WX    TMP DP  RH WIND       PRES   REMARKS
MUNCIE         CLOUDY    75  66  73 S7        29.96F

$$

INZ060-061-067>069-081>083-085>088-262000-
SOUTHWEST INDIANA

CITY           SKY/WX    TMP DP  RH WIND       PRES   REMARKS
EVANSVILLE     LGT RAIN  68  65  90 SE5       30.01F
HUNTINGBURG *+ CLOUDY    66  63  88 SE8       30.02F
WASHINGTON +   CLOUDY    69  67  96 SE8       29.99R

$$

INZ062-063-066-070>080-084-089>092-262000-
SOUTH CENTRAL AND SOUTHEAST INDIANA

CITY           SKY/WX    TMP DP  RH WIND       PRES   REMARKS
BLOOMINGTON    CLOUDY    68  63  84 S5        30.00R
MADISON *+     CLOUDY    64  63  94 SE3       30.09F
NORTH VERNON + LGT RAIN N/A N/A N/A CALM      30.01F

$$





USA.gov is the U.S. government's official web portal to all federal, state and local government web resources and services.